Weather observations for the past three days for
Cincinnati, Cincinnati Municipal Airport Lunken Field
Imperial (Metric)
Date Time (edt) Wind (mph) Vis. (mi.) Weather Sky Cond. Temperature (ºF) Relative Humidity Wind Chill (°F) Heat Index (°F) Pressure Precipitation (in)
Air Dwpt 6 hour altimeter (in) sea level (mb) 1 hr 3 hr 6 hr
Max. Min.
19 01:53 Calm 6.00 Fog/Mist CLR 75 72 86 73.9 90% 74 30.17 1021.1
19 00:53 Calm 7.00 Fair CLR 75.9 73 91% 76 30.16 1020.6
18 23:53 Calm 8.00 Fair CLR 78.1 73.9 87% 81 30.15 1020.3
18 22:53 Calm 8.00 Fair CLR 78.1 73.9 87% 81 30.15 1020.2
18 21:53 Calm 8.00 Fair CLR 78.1 73.9 87% 81 30.13 1019.8
18 20:53 Calm 8.00 Fair CLR 82 75 79% 89 30.12 1019.3
18 19:53 Calm 8.00 Fair CLR 86 75 93 86 70% 95 30.12 1019.2
18 18:53 S 3 9.00 Fair CLR 88 73.9 63% 97 30.11 1019.2
18 17:53 S 7 10.00 Fair CLR 91 72 54% 99 30.12 1019.3
18 16:53 SE 3 10.00 Fair CLR 91.9 70 49% 98 30.12 1019.5
18 15:53 S 8 10.00 Fair CLR 91 71.1 52% 98 30.14 1020.0
18 14:53 S 3 10.00 A Few Clouds FEW075 90 72 56% 97 30.15 1020.3
18 13:53 S 7 9.00 A Few Clouds FEW035 90 73 91 75.9 58% 98 30.15 1020.6
18 12:53 Vrbl 6 9.00 Partly Cloudy SCT050 90 73 58% 98 30.16 1020.6
18 11:53 S 10 8.00 Fair CLR 89.1 72 57% 96 30.15 1020.4
18 10:53 S 7 8.00 Fair CLR 87.1 73.9 65% 95 30.16 1020.6
18 09:53 S 7 8.00 Fair CLR 84 73 70% 90 30.16 1020.7
18 08:53 Calm 8.00 Fair CLR 80.1 72 76% 84 30.15 1020.5
18 07:53 Calm 7.00 Fair CLR 75.9 71.1 78.1 71.1 85% 76 30.14 1020.0
18 06:53 Calm 6.00 Fog/Mist CLR 72 69.1 91% 30.12 1019.4
18 05:53 Calm 6.00 Fog/Mist CLR 72 70 94% 30.11 1018.9
18 04:53 Calm 8.00 Fair CLR 73.9 70 88% 30.1 1018.7
18 03:53 SW 3 9.00 Fair CLR 75 70 84% 75 30.09 1018.3
18 02:53 SW 3 9.00 Fair CLR 77 71.1 82% 79 30.09 1018.3
18 01:53 S 5 9.00 Fair CLR 77 72 88 75.9 85% 78 30.09 1018.3
18 00:53 SW 6 8.00 Fair CLR 75.9 73 91% 76 30.08 1018.1
17 23:53 SW 5 8.00 Fair CLR 75.9 72 88% 76 30.07 1017.7
17 22:53 S 5 8.00 Fair CLR 77 72 85% 78 30.06 1017.5
17 21:53 SW 6 9.00 Fair CLR 79 72 79% 82 30.06 1017.2
17 20:53 S 5 9.00 Fair CLR 82 72 72% 87 30.04 1016.6
17 19:53 S 10 9.00 Fair CLR 87.1 72 95 87.1 61% 94 30.02 1016.1
17 18:53 S 9 9.00 Fair CLR 91 71.1 52% 98 30.01 1015.6
17 17:53 S 8 8.00 Fair CLR 91 73 56% 100 30.01 1015.7
17 16:53 S 10 8.00 Fair CLR 91 72 54% 99 30.03 1016.2
17 15:53 SW 14 9.00 Partly Cloudy SCT055 93.9 70 46% 100 30.03 1016.3
17 14:53 SW 12 G 21 9.00 A Few Clouds FEW055 93.9 71.1 48% 101 30.04 1016.8
17 13:53 S 10 8.00 Fair CLR 93 75 93 75.9 56% 104 30.06 1017.5
17 12:53 S 9 7.00 A Few Clouds FEW050 91.9 73.9 56% 102 30.08 1018.1
17 11:53 Calm 7.00 Fair CLR 91 72 54% 99 30.1 1018.6
17 10:53 S 8 8.00 Fair CLR 89.1 73.9 61% 98 30.09 1018.5
17 09:53 SW 7 7.00 Fair CLR 86 73 65% 93 30.09 1018.4
17 08:53 S 6 7.00 Fair CLR 81 73 77% 86 30.09 1018.4
17 07:53 Calm 8.00 Fair CLR 75.9 71.1 75.9 69.1 85% 76 30.07 1017.8
17 06:53 Calm 3.00 Fog/Mist CLR 70 68 93% 30.06 1017.5
17 05:53 Calm 4.00 Fog/Mist CLR 70 68 93% 30.05 1016.9
17 04:53 Calm 6.00 Fog/Mist CLR 70 68 93% 30.04 1016.7
17 03:53 Calm 7.00 Fair CLR 71.1 68 90% 30.03 1016.2
17 02:53 Calm 7.00 Fair CLR 70 68 93% 30.02 1016.2
17 01:53 Calm 8.00 Fair CLR 72 68 86 71.1 87% 30.02 1015.9
17 00:53 Calm 8.00 Fair CLR 73 68 84% 30.02 1016.1
16 23:53 Calm 9.00 Fair CLR 73 66.9 81% 30.01 1015.8
16 22:53 Calm 9.00 Fair CLR 73 66.9 81% 30.01 1015.8
16 21:53 Calm 10.00 Fair CLR 75.9 66.9 74% 77 30.01 1015.6
16 20:53 Calm 10.00 Fair CLR 81 69.1 67% 84 29.98 1014.9
16 19:53 S 6 10.00 Fair CLR 84.9 68 91 84.9 57% 88 29.97 1014.7
16 18:53 S 7 10.00 Fair CLR 89.1 64.9 45% 91 29.97 1014.5
16 17:53 Vrbl 6 10.00 Fair CLR 90 64 42% 91 29.98 1014.7
16 16:53 SE 5 10.00 Fair CLR 90 64 42% 91 29.99 1015.3
16 15:53 SE 6 10.00 Fair CLR 91 66 44% 94 30.01 1015.7
16 14:53 SE 6 10.00 Fair CLR 89.1 63 42% 90 30.03 1016.6
16 13:53 SE 3 10.00 Fair CLR 87.1 62.1 88 62.1 43% 88 30.05 1017.2
16 12:53 SE 3 10.00 Fair CLR 84.9 59 42% 85 30.06 1017.4
16 11:53 Calm 10.00 Fair CLR 82 57 43% 82 30.07 1017.8
16 10:53 S 5 10.00 Fair CLR 78.1 59 52% 79 30.07 1018.0
16 09:53 Calm 10.00 Fair CLR 73 59 62% 30.09 1018.5
16 08:53 Calm 10.00 Fair CLR 68 55.9 65% 30.08 1018.4
16 07:53 Calm 10.00 Fair CLR 62.1 57 62.1 54 84% 30.08 1018.1
16 06:53 Calm 10.00 Fair CLR 55.9 54 93% 30.07 1018.0
16 05:53 NE 3 9.00 Fair CLR 55.9 55 97% 30.08 1018.2
16 04:53 Calm 10.00 Fair CLR 55 54 96% 30.08 1018.0
16 03:53 Calm 10.00 Fair CLR 57 55 93% 30.08 1018.1
16 02:53 Calm 10.00 Fair CLR 57 55 93% 30.08 1018.1
Date Time (edt) Wind (mph) Vis. (mi.) Weather Sky Cond. Air Dwpt Max. Min. Relative Humidity Wind Chill (°F) Heat Index (°F) altimeter (in) sea level (mb) 1 hr 3 hr 6 hr
6 hour
Temperature (ºF) Pressure Precipitation (in)